When you browse on this site, cookies collect data to enhance your experience and personalize the content and advertising you see.
Visit our Privacy Policy to learn more. By continuing to use the site, you agree to this use of cookies and data.
  • In Hungary
  • List of Countries
  • For 7 days
  • Water Temperature
  • Weather Map
  • News
  • Weather Widgets
  • user-avatar
    Login

    Hourly Weather Soroga

    Today, 22 January, Wednesday

    Time Temperature Precipitation Wind Pressure Humidity
    00:00 -3°C° 0 mm 6 mps 733 mmHg 75%
    01:00 -3°C° 0 mm 6 mps 733 mmHg 76%
    02:00 -3°C° 0 mm 6 mps 733 mmHg 76%
    03:00 -3°C° 0 mm 6 mps 732 mmHg 78%
    04:00 -2°C° 0 mm 5 mps 731 mmHg 79%
    05:00 -2°C° 0 mm 5 mps 730 mmHg 81%
    06:00 -2°C° 0.3 mm 5 mps 730 mmHg 85%
    07:00 -2°C° 0.3 mm 5 mps 729 mmHg 88%
    08:00 -2°C° 0.3 mm 5 mps 729 mmHg 92%
    09:00 -2°C° 0.8 mm 5 mps 728 mmHg 90%
    10:00 -2°C° 0.8 mm 5 mps 728 mmHg 88%
    11:00 -3°C° 0.8 mm 6 mps 728 mmHg 86%
    12:00 -2°C° 0.2 mm 5 mps 728 mmHg 82%
    13:00 -2°C° 0.2 mm 5 mps 728 mmHg 78%
    14:00 -2°C° 0.2 mm 5 mps 729 mmHg 74%
    15:00 -4°C° 0 mm 5 mps 729 mmHg 76%
    16:00 -4°C° 0 mm 5 mps 729 mmHg 78%
    17:00 -5°C° 0 mm 5 mps 730 mmHg 80%
    18:00 -5°C° 0 mm 5 mps 731 mmHg 80%
    19:00 -5°C° 0 mm 5 mps 731 mmHg 80%
    20:00 -5°C° 0 mm 5 mps 732 mmHg 80%
    21:00 -6°C° 0.1 mm 6 mps 732 mmHg 81%
    22:00 -6°C° 0.1 mm 6 mps 733 mmHg 81%
    23:00 -6°C° 0.1 mm 6 mps 733 mmHg 82%

    Tomorrow, 23 January, Thursday

    Time Temperature Precipitation Wind Pressure Humidity
    00:00 -8°C° 0.1 mm 6 mps 734 mmHg 80%
    01:00 -8°C° 0.1 mm 6 mps 735 mmHg 78%
    02:00 -8°C° 0.1 mm 6 mps 736 mmHg 76%
    03:00 -9°C° 0 mm 6 mps 736 mmHg 72%
    04:00 -9°C° 0 mm 6 mps 736 mmHg 69%
    05:00 -9°C° 0 mm 6 mps 737 mmHg 65%
    06:00 -9°C° 0 mm 6 mps 737 mmHg 65%
    07:00 -9°C° 0 mm 6 mps 738 mmHg 64%
    08:00 -9°C° 0 mm 6 mps 739 mmHg 64%
    09:00 -9°C° 0 mm 6 mps 739 mmHg 61%
    10:00 -8°C° 0 mm 6 mps 739 mmHg 59%
    11:00 -6°C° 0 mm 6 mps 739 mmHg 56%
    12:00 -6°C° 0 mm 6 mps 739 mmHg 59%
    13:00 -6°C° 0 mm 6 mps 739 mmHg 61%
    14:00 -5°C° 0 mm 6 mps 740 mmHg 64%
    15:00 -6°C° 0 mm 6 mps 740 mmHg 66%
    16:00 -6°C° 0 mm 5 mps 740 mmHg 69%
    17:00 -6°C° 0 mm 5 mps 740 mmHg 71%
    18:00 -5°C° 0 mm 4 mps 740 mmHg 73%
    19:00 -5°C° 0 mm 3 mps 740 mmHg 74%
    20:00 -6°C° 0 mm 3 mps 740 mmHg 76%
    21:00 -5°C° 0 mm 3 mps 740 mmHg 77%
    22:00 -5°C° 0 mm 3 mps 740 mmHg 78%
    23:00 -5°C° 0 mm 3 mps 740 mmHg 79%

    Day after tomorrow, 24 January, Friday

    Time Temperature Precipitation Wind Pressure Humidity
    00:00 -5°C° 0 mm 3 mps 739 mmHg 83%
    01:00 -5°C° 0 mm 3 mps 739 mmHg 87%
    02:00 -5°C° 0 mm 3 mps 738 mmHg 90%
    03:00 -4°C° 0 mm 4 mps 737 mmHg 89%
    04:00 -4°C° 0 mm 4 mps 736 mmHg 87%
    05:00 -5°C° 0 mm 5 mps 735 mmHg 86%
    06:00 -4°C° 0.3 mm 5 mps 735 mmHg 89%
    07:00 -3°C° 0.3 mm 4 mps 734 mmHg 92%
    08:00 -3°C° 0.3 mm 4 mps 734 mmHg 96%
    09:00 -2°C° 0.2 mm 4 mps 733 mmHg 96%
    10:00 -1°C° 0.2 mm 4 mps 733 mmHg 96%
    11:00 0°C° 0.2 mm 4 mps 732 mmHg 97%
    12:00 0°C° 0.4 mm 4 mps 732 mmHg 96%
    13:00 +1°C° 0.4 mm 4 mps 732 mmHg 95%
    14:00 +1°C° 0.4 mm 4 mps 732 mmHg 95%
    15:00 +1°C° 0.1 mm 4 mps 731 mmHg 95%
    16:00 +1°C° 0.1 mm 4 mps 731 mmHg 95%
    17:00 0°C° 0.1 mm 4 mps 731 mmHg 96%
    18:00 0°C° 0.1 mm 4 mps 732 mmHg 96%
    19:00 0°C° 0.1 mm 4 mps 732 mmHg 95%
    20:00 0°C° 0.1 mm 3 mps 732 mmHg 95%
    21:00 0°C° 0.1 mm 3 mps 732 mmHg 95%
    22:00 0°C° 0.1 mm 3 mps 732 mmHg 95%
    23:00 -1°C° 0.1 mm 3 mps 732 mmHg 94%

    25 January, Saturday

    Time Temperature Precipitation Wind Pressure Humidity
    00:00 -1°C° 0 mm 3 mps 731 mmHg 95%
    01:00 -1°C° 0 mm 2 mps 731 mmHg 96%
    02:00 -1°C° 0 mm 2 mps 731 mmHg 97%
    03:00 0°C° 0 mm 3 mps 730 mmHg 96%
    04:00 0°C° 0 mm 3 mps 730 mmHg 95%
    05:00 +1°C° 0 mm 3 mps 730 mmHg 94%
    06:00 -1°C° 0.1 mm 4 mps 730 mmHg 92%
    07:00 -1°C° 0.1 mm 4 mps 730 mmHg 89%
    08:00 -1°C° 0.1 mm 4 mps 730 mmHg 87%
    09:00 -1°C° 0 mm 4 mps 730 mmHg 85%
    10:00 -1°C° 0 mm 5 mps 730 mmHg 82%
    11:00 -1°C° 0 mm 5 mps 730 mmHg 80%
    12:00 -1°C° 0 mm 5 mps 729 mmHg 77%
    13:00 -2°C° 0 mm 6 mps 729 mmHg 73%
    14:00 -2°C° 0 mm 7 mps 729 mmHg 70%
    15:00 -2°C° 0.4 mm 7 mps 729 mmHg 71%
    16:00 -3°C° 0.4 mm 7 mps 729 mmHg 71%
    17:00 -3°C° 0.4 mm 7 mps 729 mmHg 72%
    18:00 -4°C° 0.1 mm 7 mps 730 mmHg 73%
    19:00 -4°C° 0.1 mm 7 mps 731 mmHg 73%
    20:00 -5°C° 0.1 mm 6 mps 732 mmHg 74%
    21:00 -5°C° 0 mm 6 mps 732 mmHg 74%
    22:00 -5°C° 0 mm 6 mps 733 mmHg 74%
    23:00 -5°C° 0 mm 6 mps 734 mmHg 74%

    26 January, Sunday

    Time Temperature Precipitation Wind Pressure Humidity
    00:00 -6°C° 0 mm 6 mps 735 mmHg 75%
    01:00 -6°C° 0 mm 5 mps 735 mmHg 75%
    02:00 -6°C° 0 mm 5 mps 736 mmHg 76%
    03:00 -6°C° 0 mm 5 mps 737 mmHg 77%
    04:00 -6°C° 0 mm 5 mps 737 mmHg 79%
    05:00 -6°C° 0 mm 5 mps 738 mmHg 81%
    06:00 -5°C° 0 mm 4 mps 739 mmHg 82%
    07:00 -5°C° 0 mm 4 mps 739 mmHg 83%
    08:00 -5°C° 0 mm 4 mps 740 mmHg 84%
    09:00 -5°C° 0 mm 4 mps 741 mmHg 82%
    10:00 -4°C° 0 mm 3 mps 741 mmHg 80%
    11:00 -4°C° 0 mm 3 mps 742 mmHg 79%
    12:00 -4°C° 0 mm 3 mps 742 mmHg 78%
    13:00 -2°C° 0 mm 2 mps 743 mmHg 77%
    14:00 -2°C° 0 mm 2 mps 743 mmHg 76%
    15:00 -2°C° 0 mm 2 mps 743 mmHg 78%
    16:00 -3°C° 0 mm 2 mps 743 mmHg 80%
    17:00 -3°C° 0 mm 2 mps 743 mmHg 83%
    18:00 -3°C° 0 mm 2 mps 743 mmHg 82%
    19:00 -3°C° 0 mm 2 mps 743 mmHg 81%
    20:00 -4°C° 0 mm 3 mps 743 mmHg 80%
    21:00 -2°C° 0 mm 3 mps 743 mmHg 83%
    22:00 -2°C° 0 mm 2 mps 743 mmHg 86%
    23:00 -2°C° 0 mm 2 mps 743 mmHg 89%

    27 January, Monday

    Time Temperature Precipitation Wind Pressure Humidity
    00:00 -2°C° 0.1 mm 3 mps 742 mmHg 92%
    01:00 -1°C° 0.1 mm 3 mps 742 mmHg 94%
    02:00 -1°C° 0.1 mm 3 mps 742 mmHg 97%
    03:00 -1°C° 0.1 mm 3 mps 741 mmHg 97%
    04:00 -2°C° 0.1 mm 4 mps 741 mmHg 96%
    05:00 -2°C° 0.1 mm 4 mps 740 mmHg 96%
    06:00 -1°C° 0.1 mm 4 mps 740 mmHg 96%
    07:00 -1°C° 0.1 mm 4 mps 740 mmHg 97%
    08:00 -1°C° 0.1 mm 4 mps 740 mmHg 97%
    09:00 -1°C° 0 mm 4 mps 740 mmHg 96%
    10:00 -1°C° 0 mm 4 mps 739 mmHg 96%
    11:00 -1°C° 0 mm 4 mps 739 mmHg 96%
    12:00 -1°C° 0.1 mm 4 mps 739 mmHg 95%
    13:00 -1°C° 0.1 mm 4 mps 738 mmHg 94%
    14:00 -1°C° 0.1 mm 4 mps 738 mmHg 92%
    15:00 -1°C° 0 mm 5 mps 738 mmHg 90%
    16:00 -1°C° 0 mm 5 mps 737 mmHg 88%
    17:00 -1°C° 0 mm 5 mps 737 mmHg 86%
    18:00 -1°C° 0.1 mm 5 mps 737 mmHg 89%
    19:00 -1°C° 0.1 mm 5 mps 737 mmHg 92%
    20:00 -2°C° 0.1 mm 6 mps 737 mmHg 94%
    21:00 -1°C° 0 mm 5 mps 737 mmHg 92%
    22:00 -1°C° 0 mm 5 mps 737 mmHg 90%
    23:00 0°C° 0 mm 4 mps 737 mmHg 88%
    Show more